Overview Statistics Trail Chart Weather Telemetry Raw packets
 

This is the latest recevied weather packets stored in our database for station/object IU8UOQ-5. If no packets are shown the sender has not sent any weather packets the latest 10 day(s).

<< 22 23 24 25 26 27 28 >>
Time Temp. Humidity Pressure Rain* Wind** Luminosity Snow
1787897781 28.89° C 42% 1008.7 hPa - - - -
1787896580 28.33° C 42% 1008.7 hPa - - - -
1787895379 28.33° C 39% 1008.7 hPa - - - -
1787894178 28.33° C 38% 1008.6 hPa - - - -
1787892976 28.33° C 37% 1008.5 hPa - - - -
1787891775 28.33° C 36% 1008.5 hPa - - - -
1787890574 27.78° C 36% 1008.3 hPa - - - -
1787889373 28.33° C 36% 1008.3 hPa - - - -
1787888171 28.33° C 34% 1008.5 hPa - - - -
1787886970 27.78° C 35% 1008.4 hPa - - - -
1787885769 27.22° C 36% 1008.6 hPa - - - -
1787884568 27.22° C 37% 1008.7 hPa - - - -
1787883366 27.22° C 38% 1008.8 hPa - - - -
1787882165 27.22° C 38% 1008.9 hPa - - - -
1787880964 27.22° C 37% 1009.2 hPa - - - -
1787879763 27.22° C 37% 1009.3 hPa - - - -
1787878561 27.22° C 36% 1009.3 hPa - - - -
1787877360 27.22° C 38% 1009.6 hPa - - - -
1787876159 27.22° C 37% 1009.7 hPa - - - -
1787874958 27.78° C 38% 1009.8 hPa - - - -
1787873756 27.22° C 38% 1010 hPa - - - -
1787872555 27.22° C 38% 1010.2 hPa - - - -
1787871354 27.78° C 40% 1010.6 hPa - - - -
1787870152 27.78° C 42% 1010.8 hPa - - - -
1787868951 27.78° C 44% 1010.8 hPa - - - -

* Rain since midnight (hover to see other rain measurements)
** Current wind speed in m/s (hover to see current wind gust speed)